Weather History for LICT - February, 2013

Change the Weather History Date:

Sunday, February 10, 2013

  Actual Average Record
Temperature  
Mean Temperature 45 °F -  
Max Temperature 52 °F 61 °F 65 °F (2014)
Min Temperature 38 °F 46 °F 37 °F (1997)
Degree Days  
Heating Degree Days 20    
Moisture  
Dew Point 38 °F    
Average Humidity 74    
Maximum Humidity 93    
Minimum Humidity 50    
Precipitation  
Precipitation 0.02 in 0.06 in - ()
Sea Level Pressure  
Sea Level Pressure 29.95 in    
Wind  
Wind Speed 8 mph ()    
Max Wind Speed 23 mph    
Max Gust Speed 29 mph    
Visibility 6.5 miles    
Events Rain    
Averages and records for this station are not official NWS values.
T = Trace of Precipitation, MM = Missing Value Source: Averaged Metar Reports

Daily Weather History Graph

Daily Weather History Graph

Search for Another Location

Airport or City:

Trip Planner

Search our weather history database for the weather conditions in past years. The results will help you decide how hot, cold, wet, or windy it might be!

Date:

Astronomy

Feb. 10, 2013 Rise Set
Actual Time 7:05 AM CET 5:43 PM CET
Civil Twilight 6:38 AM CET 6:10 PM CET
Nautical Twilight 6:07 AM CET 6:41 PM CET
Astronomical Twilight 5:36 AM CET 7:12 PM CET
Moon 6:45 AM CET (2/10) 6:13 PM CET (2/10)
Length of Visible Light 11h 32m
Length of Day
10h 37m
New Moon, 0% of the Moon is Illuminated
Feb 10
New Moon
Feb 17
First Quarter
Feb 25
Full
Mar 4
Last Quarter
Mar 11
New

Hourly Weather History & Observations

Time (CET) Temp. Windchill Dew Point Humidity Pressure Visibility Wind Dir Wind Speed Gust Speed Precip Events Conditions
12:55 AM 41.0 °F - 39.2 °F 93% 29.92 in 6.2 mi SE 2.3 mph - N/A   Scattered Clouds
1:00 AM 41 °F - 39 °F 90% 29.93 in 7 mi SE 2.3 mph - -   Partly Cloudy
1:55 AM 39.2 °F - 37.4 °F 93% 29.92 in 6.2 mi ESE 2.3 mph - N/A   Scattered Clouds
2:55 AM 41.0 °F - 39.2 °F 93% 29.92 in 6.2 mi SSW 2.3 mph - N/A   Scattered Clouds
3:55 AM 41.0 °F 39.0 °F 39.2 °F 93% 29.92 in 6.2 mi WSW 3.5 mph - N/A   Scattered Clouds
4:55 AM 44.6 °F 38.1 °F 41.0 °F 87% 29.89 in 6.2 mi West 13.8 mph - N/A   Scattered Clouds
5:55 AM 44.6 °F 37.4 °F 41.0 °F 87% 29.89 in 6.2 mi West 16.1 mph - N/A   Scattered Clouds
6:55 AM 46.4 °F 38.3 °F 35.6 °F 66% 29.89 in 6.2 mi West 23.0 mph - N/A   Mostly Cloudy
7:00 AM 46 °F - 35 °F 55% 29.90 in 7 mi West 23.0 mph - -   Partly Cloudy
7:55 AM 46.4 °F 38.3 °F 35.6 °F 66% 29.89 in 6.2 mi WNW 23.0 mph - N/A   Scattered Clouds
8:55 AM 48.2 °F - 33.8 °F 58% 29.92 in 6.2 mi WNW 21.9 mph - N/A   Scattered Clouds
9:55 AM 48.2 °F - 33.8 °F 58% 29.92 in 6.2 mi WNW 17.3 mph - N/A   Scattered Clouds
10:55 AM 46.4 °F 42.4 °F 41.0 °F 81% 29.95 in 6.2 mi NNW 8.1 mph - N/A Rain Light Rain
11:55 AM 48.2 °F - 39.2 °F 71% 29.95 in 6.2 mi WNW 16.1 mph - N/A   Scattered Clouds
12:55 PM 50.0 °F - 37.4 °F 62% 29.95 in 6.2 mi WNW 17.3 mph - N/A   Scattered Clouds
1:00 PM 50 °F - 37 °F 50% 29.96 in 9 mi WNW 17.3 mph - -   Partly Cloudy
1:55 PM 50.0 °F - 39.2 °F 66% 29.95 in 6.2 mi NNW 16.1 mph 28.8 mph N/A Rain Light Rain
2:55 PM 48.2 °F - 42.8 °F 82% 29.95 in 6.2 mi NW 10.4 mph - N/A   Partly Cloudy
3:55 PM 46.4 °F 43.5 °F 42.8 °F 87% 29.98 in 6.2 mi NW 5.8 mph - N/A Rain Light Rain
4:55 PM 50.0 °F - 39.2 °F 66% 29.98 in 6.2 mi WNW 10.4 mph - N/A   Scattered Clouds
5:55 PM 48.2 °F - 37.4 °F 66% 29.98 in 6.2 mi NW 8.1 mph - N/A   Scattered Clouds
6:55 PM 48.2 °F - 35.6 °F 62% 30.01 in 6.2 mi NW 8.1 mph - N/A   Scattered Clouds
7:00 PM 48 °F - 36 °F 52% 30.01 in 9 mi NW 8.1 mph - -   Partly Cloudy
7:55 PM 48.2 °F - 35.6 °F 62% 30.01 in 6.2 mi NW 6.9 mph - N/A   Partly Cloudy
8:55 PM 48.2 °F - 39.2 °F 71% 30.01 in 6.2 mi West 3.5 mph - N/A   Scattered Clouds
9:55 PM 46.4 °F - 41.0 °F 81% 30.01 in 6.2 mi SE 2.3 mph - N/A   Scattered Clouds
10:55 PM 44.6 °F - 41.0 °F 87% 30.01 in 6.2 mi SE 2.3 mph - N/A   Partly Cloudy
11:55 PM 42.8 °F 41.1 °F 41.0 °F 93% 30.01 in 6.2 mi ESE 3.5 mph - N/A   Partly Cloudy